Showing default

NUSAT-45 (UZMASAT-1), 62640

Orbit data source: Space-Track

NUSAT-45 (UZMASAT-1), 62640 is an Argentinean payload satellite in SSO that was launched on Tue, 14 Jan 2025 UTC via an FALCON 9 launch vehicle from the Air Force Western Test Range (AFWTR). Payload-class satellites include a variety of spacecraft equipped with specific instruments for various scientific and technological missions. These include communications satellites like Starlink; space stations such as the ISS; scientific satellites like the Hubble; Earth observation satellites from companies like Planet Labs, Umbra, and HawkEye 360; GPS; miniature CubeSats for education and research; and military/defense satellites.

Loading next visibility...
Identifier
62640, 2025-009AH
Orbit
SSO
Country
Flag of ARAR / ARGN
Related business
Manufacturer
URUGUS S.A.
Mission
Operational Commercial Imaging
Bus & Motor
NEWSAT V, Unknown motor
Mass
41.5 kg wet, 38.5 kg dry
Launch date (UTC)
2025-01-14 (1 year ago)
Launch vehicle
FALCON 9
Launch site
Air Force Western Test Range (AFWTR)
Object type
Payload
Rocket body
Debris
Shape & HBR
Box, 1.0 m
Radar Cross Section
0.542 m², Medium (>0.1 m² and < 1m²)

Expand to show TLE details & history
Last TLE update: 8 hours ago

TLE from 8 hours ago
0 NUSAT-45 (UZMASAT-1)
1 62640U 25009AH  26125.48383194  .00013532  00000-0  47074-3 0  9999
2 62640  97.3595 207.0838 0003506 112.2992 247.8621 15.29820185 72398
Epoch: 2026-05-05T11:36Z
TLE epoch observation values (Epoch: 2026-05-05T11:36:43.079Z)
Latitude
0.00001°
Longitude
169.54628°
Altitude
480.361 km
Speed
7.625 km/s
True Right ascension
13h 48m 20s
True Declination
0° 00' 00"
Sunlit
Object was in full shadow at epoch
Visualization orbit readout
Latitude
Unknown
Longitude
Unknown
Altitude
Unknown
Speed
Unknown
Apparent Right ascension
Unknown
Apparent Declination
Unknown
Sunlit
N/A
Visualization observer readout
Local Sidereal Time
03:52:31
Azimuth
Unknown
Elevation
Unknown
Doppler factor
Unknown
Orbital elements
Apogee altitude
475.702 km
Perigee altitude
470.898 km
Semi-major axis
6,851.437 km
Eccentricity
0.00035
Inclination
97.3595°
RAAN
207.0838°
Arg. of periapsis
112.2992°
True anomaly
247.82489°
Mean anomaly
247.8621°
Eccentric anomaly
247.8435°
Mean motion
3.82711 °/min
Orbital period
94.07 mins
BSTAR
0.00047074
Loading maneuver chart data...
Computing Atmospheric mass density...
Loading historical data...
Loading historical data...
Loading historical data...
Loading historical data...
Loading historical data...
Loading historical data...
Loading historical data...

Documentation

Showing up to 5 results
|